STARLINK-1132, 45044

Orbit data source: Space-Track

STARLINK-1132, 45044 is a payload satellite owned by SpaceX/Seattle (US) in LEO that was launched on Wed, 29 Jan 2020 UTC via an FALCON 9 launch vehicle from the Air Force Eastern Test Range (AFETR). Payload-class satellites include a variety of spacecraft equipped with specific instruments for various scientific and technological missions. These include communications satellites like Starlink; space stations such as the ISS; scientific satellites like the Hubble; Earth observation satellites from companies like Planet Labs, Umbra, and HawkEye 360; GPS; miniature CubeSats for education and research; and military/defense satellites.

Loading next visibility...
Identifier
45044, 2020-006A
Orbit
LEO
Country
Flag of USUS
Related business
Manufacturer
SpaceX/Seattle
Mission
Operational Commercial Communications
Bus & Motor
STARLINK, Unknown motor
Mass
260 kg wet, ~248 kg dry
Launch date (UTC)
2020-01-29 (6 years ago)
Launch vehicle
FALCON 9
Launch site
Air Force Eastern Test Range (AFETR)
Object type
Payload
Rocket body
Debris
Shape & HBR
Box + 1 Pan, 4.4 m
Radar Cross Section
13.562 m², Large (>1 m²)

Expand to show TLE details & history
Last TLE update: 8 hours ago

TLE from 8 hours ago
0 STARLINK-1132
1 45044U 20006A   25259.22731201  .00005685  00000-0  39998-3 0  9991
2 45044  53.0544 329.8118 0001233  74.4343 285.6782 15.06426121310444
Epoch: 2025-09-16T05:27Z
TLE epoch observation values (Epoch: 2025-09-16T05:27:19.757Z)
Latitude
-0.00003°
Longitude
-107.44118°
Altitude
547.78 km
Speed
7.589 km/s
True Right ascension
21h 59m 14s
True Declination
0° 00' 00"
Sunlit
Object was in full shadow at epoch
Visualization orbit readout
Latitude
Unknown
Longitude
Unknown
Altitude
Unknown
Speed
Unknown
Apparent Right ascension
Unknown
Apparent Declination
Unknown
Sunlit
N/A
Visualization observer readout
Local Sidereal Time
06:24:52
Azimuth
Unknown
Elevation
Unknown
Doppler factor
Unknown
Orbital elements
Apogee altitude
548.256 km
Perigee altitude
546.548 km
Semi-major axis
6,925.539 km
Eccentricity
0.00012
Inclination
53.0544°
RAAN
329.8118°
Arg. of periapsis
74.4343°
True anomaly
285.6646°
Mean anomaly
285.6782°
Eccentric anomaly
285.6714°
Mean motion
3.76585 °/min
Orbital period
95.6 mins
BSTAR
0.00039998
Loading maneuver chart data...
Computing Atmospheric mass density...

Documentation

Showing up to 5 results
|